Weather History for Orangeburg, SC

Change the Weather History Date:

Thursday, December 20, 2012

  Actual Average Record
Temperature  
Mean Temperature 56 °F 47 °F  
Max Temperature 74 °F 57 °F 82 °F (1967)
Min Temperature 37 °F 36 °F 15 °F (1981)
Degree Days  
Heating Degree Days 9 18  
Month to date heating degree days 160 325  
Since 1 July heating degree days 610 694  
Cooling Degree Days 0 0  
Month to date cooling degree days 2 0  
Year to date cooling degree days 2322 2102  
Growing Degree Days 5 (Base 50)    
Moisture  
Dew Point 50 °F    
Average Humidity 78    
Maximum Humidity 93    
Minimum Humidity 49    
Precipitation  
Precipitation 0.30 in 0.11 in 0.77 in (1990)
Month to date precipitation 1.85 2.25  
Year to date precipitation 40.15 45.66  
Sea Level Pressure  
Sea Level Pressure 29.86 in    
Wind  
Wind Speed 9 mph (SSW)    
Max Wind Speed 28 mph    
Max Gust Speed 39 mph    
Visibility 8 miles    
Events Rain    
T = Trace of Precipitation, MM = Missing Value Source: NWS Daily Summary

Daily Weather History Graph

Daily Weather History Graph

Search for Another Location

Airport:

Trip Planner

Search our weather history database for the weather conditions in past years. The results will help you decide how hot, cold, wet, or windy it might be!

Date:

Astronomy

Dec. 20, 2012 Rise Set
Actual Time 7:23 AM EST 5:19 PM EST
Civil Twilight 6:55 AM EST 5:46 PM EST
Nautical Twilight 6:24 AM EST 6:18 PM EST
Astronomical Twilight 5:54 AM EST 6:48 PM EST
Moon 12:22 PM EST (12/20) 12:24 AM EST (12/20)
Length of Visible Light 10h 51m
Length of Day
9h 56m
First Quarter, 55% of the Moon is Illuminated
Dec 20
First Quarter
Dec 28
Full
Jan 4
Last Quarter
Jan 11
New
Jan 18
First Quarter

Hourly Weather History & Observations

Time (EST) Temp. Dew Point Humidity Pressure Visibility Wind Dir Wind Speed Gust Speed Precip Events Conditions
12:53 AM 43.0 °F 39.9 °F 89% 30.11 in 10.0 mi Calm Calm - N/A   Clear
1:53 AM 43.0 °F 39.0 °F 86% 30.11 in 9.0 mi Calm Calm - N/A   Clear
2:53 AM 41.0 °F 39.0 °F 93% 30.09 in 8.0 mi Calm Calm - N/A   Clear
3:53 AM 39.9 °F 37.9 °F 93% 30.10 in 6.0 mi Calm Calm - N/A   Clear
4:53 AM 39.0 °F 37.0 °F 93% 30.10 in 7.0 mi Calm Calm - N/A   Clear
5:53 AM 37.9 °F 36.0 °F 93% 30.11 in 7.0 mi Calm Calm - N/A   Clear
6:53 AM 37.9 °F 36.0 °F 93% 30.09 in 6.0 mi Calm Calm - N/A   Clear
7:53 AM 39.0 °F 36.0 °F 89% 30.08 in 6.0 mi Calm Calm - N/A   Clear
8:53 AM 46.0 °F 41.0 °F 83% 30.06 in 10.0 mi Calm Calm - N/A   Clear
9:53 AM 55.9 °F 48.0 °F 75% 30.06 in - SE 5.8 mph - N/A   Clear
10:53 AM 63.0 °F 48.0 °F 58% 30.00 in - SSE 11.5 mph - N/A   Clear
11:53 AM 68.0 °F 51.1 °F 55% 29.96 in 10.0 mi South 10.4 mph 17.3 mph N/A   Clear
12:53 PM 70.0 °F 53.1 °F 55% 29.90 in 10.0 mi South 12.7 mph 18.4 mph N/A   Mostly Cloudy
1:53 PM 73.9 °F 53.1 °F 48% 29.84 in 10.0 mi South 18.4 mph 24.2 mph N/A   Mostly Cloudy
2:53 PM 72.0 °F 54.0 °F 53% 29.81 in 10.0 mi South 18.4 mph 26.5 mph N/A   Mostly Cloudy
3:53 PM 71.1 °F 54.0 °F 55% 29.77 in 10.0 mi South 11.5 mph 21.9 mph N/A   Scattered Clouds
4:53 PM 69.1 °F 55.9 °F 63% 29.75 in 10.0 mi South 12.7 mph 24.2 mph N/A   Mostly Cloudy
5:53 PM 66.0 °F 57.9 °F 75% 29.73 in 10.0 mi South 10.4 mph - 0.01 in Rain Light Rain
6:53 PM 64.0 °F 60.1 °F 87% 29.68 in 7.0 mi South 9.2 mph 19.6 mph 0.04 in Rain Light Rain
7:39 PM 64.4 °F 60.8 °F 88% 29.66 in 6.0 mi South 11.5 mph 23.0 mph 0.05 in Rain Rain
7:53 PM 64.0 °F 61.0 °F 90% 29.66 in 4.0 mi South 15.0 mph 23.0 mph 0.11 in Rain Rain
8:11 PM 64.4 °F 60.8 °F 88% 29.65 in 6.0 mi South 16.1 mph 24.2 mph 0.02 in Rain Light Rain
8:35 PM 64.4 °F 60.8 °F 88% 29.67 in 6.0 mi WSW 16.1 mph 23.0 mph 0.05 in Rain Light Rain
8:39 PM 64.4 °F 60.8 °F 88% 29.68 in 2.5 mi West 15.0 mph 24.2 mph 0.10 in Rain Heavy Rain
8:43 PM 64.4 °F 60.8 °F 88% 29.68 in 2.0 mi West 11.5 mph 24.2 mph 0.13 in Rain Heavy Rain
8:48 PM 64.4 °F 62.6 °F 94% 29.68 in 3.0 mi WSW 13.8 mph - 0.13 in Rain Light Rain
8:53 PM 64.0 °F 61.0 °F 90% 29.68 in 7.0 mi WSW 11.5 mph 21.9 mph 0.13 in Rain Light Rain
8:57 PM 64.4 °F 60.8 °F 88% 29.67 in 10.0 mi WSW 13.8 mph 21.9 mph 0.01 in Rain Light Rain
9:53 PM 63.0 °F 55.9 °F 78% 29.69 in 10.0 mi WNW 21.9 mph 35.7 mph 0.01 in   Overcast
10:53 PM 55.9 °F 44.1 °F 64% 29.73 in 10.0 mi West 16.1 mph - N/A   Overcast
11:53 PM 48.9 °F 32.0 °F 52% 29.79 in 10.0 mi West 23.0 mph 39.1 mph N/A   Partly Cloudy